Flag for Norway Weather past 2 weeks in Stavanger, Norway

Now
61 °F

Broken clouds.


Feels Like: 61 °F
Forecast: 53 / 62 °F
Wind: 6 mph from South

Location: Stavanger / Sola

Current Time: Sep 2, 2014 at 11:51:27 AM

Latest Report: Sep 2, 2014 at 11:20 AM


Visibility: N/A

Pressure: 30.24 "Hg

Humidity: 88%

Dew point: 57 °F

Location of StavangerLocation

Historic Weather in Stavanger — Graph

°F

Stavanger temperature yesterday

Maximum temperature yesterday: 64 °F (at 1:50 PM)
Minimum temperature yesterday: 59 °F (at 12:50 AM)
Average temperature yesterday: 61 °F

Past Weeks' High & Low Weather Summary

 TemperatureHumidityPressure
High68 °F (Aug 31, 11:50 AM)100% (Aug 22, 5:50 AM)30.21 "Hg (Aug 22, 5:50 AM)
Low48 °F (Aug 22, 5:50 AM)56% (Aug 29, 4:50 PM)29.21 "Hg (Aug 18, 10:20 AM)
Average57 °F80%29.76 "Hg
* Reported Aug 18 10:20 AM — Sep 2 10:20 AM, Stavanger, Weather by CustomWeather, © 2014

Note: Actual official high and low records may vary slightly from our data, if they occured in-between our weather recording intervals... More about our weather records

Advertising

Stavanger weather history for previous 24 hours

 ConditionsComfort  
Time TempWeatherWind HumidityBarometerVisibility
10:20 AM
Sep 2
61 °FPartly sunny.5 mph88%30.21 "HgN/A
9:50 AM61 °FPartly sunny.5 mph94%30.21 "HgN/A
8:50 AM57 °FPartly sunny.1 mph100%30.21 "HgN/A
8:20 AM57 °FPartly sunny.2 mph100%30.21 "HgN/A
7:50 AM57 °FBroken clouds.3 mph94%30.18 "HgN/A
7:20 AM57 °FPartly cloudy.3 mph94%30.18 "HgN/A
6:50 AM57 °FPartly cloudy.6 mph94%30.18 "HgN/A
6:20 AM57 °FPassing clouds.2 mph94%30.18 "HgN/A
5:50 AM57 °FPartly cloudy.3 mph94%30.18 "HgN/A
4:50 AM57 °FPassing clouds.2 mph94%30.18 "HgN/A
3:50 AM57 °FPartly cloudy.3 mph94%30.18 "HgN/A
2:50 AM57 °FPartly cloudy.6 mph94%30.18 "HgN/A
1:50 AM59 °FPartly cloudy.5 mph88%30.15 "HgN/A
1:20 AM57 °FPartly cloudy.5 mph88%30.15 "HgN/A
12:50 AM59 °FPartly cloudy.6 mph82%30.15 "HgN/A
12:20 AM59 °FPartly cloudy.5 mph88%30.15 "HgN/A
11:50 PM
Sep 1
59 °FPassing clouds.3 mph88%30.15 "HgN/A
11:20 PM59 °FPassing clouds.2 mph82%30.15 "HgN/A
10:20 PM59 °FPassing clouds.3 mph82%30.15 "HgN/A
9:50 PM59 °FPassing clouds.3 mph82%30.15 "HgN/A
9:20 PM59 °FBroken clouds.3 mph82%30.15 "HgN/A
8:50 PM61 °FBroken clouds.6 mph77%30.12 "HgN/A
8:20 PM61 °FPartly sunny.5 mph77%30.12 "HgN/A
7:50 PM61 °FPartly sunny.6 mph72%30.12 "HgN/A
7:20 PM61 °FPartly sunny.8 mph72%30.12 "HgN/A
6:50 PM63 °FPartly sunny.8 mph68%30.12 "HgN/A
6:20 PM63 °FPartly sunny.9 mph68%30.12 "HgN/A
5:50 PM63 °FPartly sunny.9 mph68%30.12 "HgN/A
5:20 PM63 °FPartly sunny.10 mph68%30.12 "HgN/A
4:50 PM63 °FPartly sunny.13 mph68%30.12 "HgN/A
4:20 PM63 °FPartly sunny.16 mph68%30.12 "HgN/A
3:50 PM63 °FPartly sunny.15 mph68%30.12 "HgN/A
3:20 PM63 °FBroken clouds.16 mph73%30.12 "HgN/A
2:50 PM61 °FDrizzle. Fog.17 mph77%30.12 "Hg3 mi
2:20 PM63 °FPartly sunny.15 mph68%30.12 "HgN/A
1:50 PM64 °FPartly sunny.16 mph60%30.12 "HgN/A
1:20 PM63 °FPartly sunny.17 mph64%30.12 "HgN/A
12:50 PM63 °FPartly sunny.15 mph64%30.12 "HgN/A
12:20 PM63 °FPartly sunny.13 mph64%30.12 "HgN/A
11:50 AM63 °FPartly sunny.10 mph64%30.12 "HgN/A
11:20 AM61 °FBroken clouds.10 mph68%30.12 "HgN/A
Weather by CustomWeather, © 2014

See weather overviewHow to use our weather pages